Wind_Speed
31 31 30 30 30 29 28 26 25 25 28 20 20 21 32 41 34 45 36 42 44 43 41 40 39 36 35 37 35 21 31 31 31 30 29 28 27 26 26 26 25 26 23 22 21 20 21
32 32 31 31 28 29 27 25 23 23 23 19 19 19 22 32 35 43 43 37 41 39 42 41 41 40 38 38 33 25 30 32 31 31 31 29 27 25 24 24 24 24 20 24 22 22 22
31 32 31 29 26 24 21 21 20 20 20 17 15 16 17 20 23 31 48 40 40 32 41 41 41 42 42 35 35 37 26 32 32 32 30 29 29 28 24 24 25 19 24 24 24 24 24
30 31 30 27 23 17 17 17 17 18 18 16 16 15 16 20 21 30 38 45 29 34 38 41 41 41 45 39 34 35 34 30 34 35 32 30 30 29 27 26 25 22 25 22 27 25 25
30 29 28 24 19 15 13 15 14 16 18 15 14 16 18 19 21 17 32 56 40 27 39 41 40 41 44 45 39 33 37 31 32 35 33 31 33 32 30 28 22 28 18 26 22 26 24
30 27 26 23 18 15 15 14 14 18 15 16 15 17 18 19 19 21 24 36 47 21 40 39 39 38 41 48 41 35 34 37 33 36 35 34 36 36 37 34 27 25 21 26 24 27 27
28 28 25 23 22 18 16 13 13 16 16 13 16 17 20 19 23 3 27 23 50 35 36 51 38 49 20 35 43 37 33 35 34 37 42 40 41 49 44 38 23 27 26 21 30 22 24
28 27 26 24 21 19 16 13 15 17 14 13 17 17 19 20 21 14 9 26 34 25 28 47 42 31 35 24 33 41 38 37 40 39 42 41 46 41 39 36 32 24 24 27 22 28 21
27 27 25 25 22 18 15 13 15 16 15 15 16 17 19 19 19 26 15 11 22 44 17 39 47 36 35 40 27 39 42 40 39 41 44 44 35 40 38 38 36 30 20 25 23 23 20
28 26 24 23 22 18 15 14 14 11 13 8 12 16 17 20 17 18 24 9 17 38 13 22 44 44 37 36 39 33 41 42 40 44 40 36 38 35 39 38 35 30 26 18 21 20 11
29 26 24 23 21 20 15 13 15 12 10 10 11 15 15 17 19 19 19 20 19 44 6 14 37 34 45 41 41 34 37 43 32 41 40 34 34 39 40 38 34 27 28 24 18 19 15
27 26 25 22 20 18 16 14 12 9 10 11 11 13 15 15 16 17 17 18 23 14 9 17 30 43 44 50 38 37 36 41 40 32 37 31 28 33 31 38 33 29 24 20 18 16 6
23 25 25 23 21 19 16 15 13 11 11 11 13 14 16 17 19 15 15 14 14 9 23 19 34 43 49 54 44 34 46 46 37 29 27 30 24 32 32 30 29 28 26 6 4 5 6
19 23 24 24 23 20 18 15 14 13 13 14 12 15 13 17 20 18 15 12 3 17 13 13 33 42 58 47 45 42 43 42 39 32 30 28 17 32 30 36 35 37 36 12 8 6 8
20 20 21 23 23 21 18 17 16 16 16 16 15 14 16 16 17 21 16 6 14 22 11 12 26 41 38 46 40 39 40 48 47 41 23 26 17 34 27 32 32 32 34 26 7 6 4
24 21 21 19 23 24 21 19 17 16 17 18 17 14 16 18 18 13 11 16 17 23 30 28 24 38 37 45 41 45 44 44 45 49 36 22 18 29 34 31 34 33 34 19 13 9 6
27 24 23 22 22 23 25 22 19 18 16 17 16 14 17 17 13 11 21 23 17 13 23 25 20 28 36 44 43 48 44 38 50 47 40 25 23 24 34 35 37 32 31 26 19 17 8
26 28 29 25 23 23 25 23 22 19 18 17 17 16 16 23 16 14 22 28 19 16 16 25 29 16 31 40 41 38 47 54 43 45 51 33 17 18 39 26 37 36 33 44 21 9 20
25 27 30 28 25 24 25 22 19 18 19 21 21 16 15 24 10 14 20 22 26 28 20 21 25 15 24 36 35 39 36 46 43 50 48 46 20 11 12 22 33 41 41 33 26 19 23
25 26 26 28 29 25 23 23 19 17 18 19 22 15 20 16 20 20 27 20 20 27 25 24 28 13 20 29 37 38 33 37 44 40 52 50 39 33 23 27 27 35 38 38 38 24 27
24 24 25 24 27 26 23 23 21 17 16 17 19 10 21 24 28 28 21 17 21 22 24 25 27 27 16 24 37 30 45 37 45 39 54 45 41 43 40 33 26 32 43 44 43 49 26
25 22 23 23 21 26 24 22 21 20 17 16 14 23 24 27 25 25 20 18 16 12 26 25 34 29 29 24 40 43 33 48 43 46 39 44 30 37 34 39 31 32 29 32 40 45 46
34 25 22 22 21 25 25 22 20 20 21 18 17 19 25 27 28 29 28 22 26 23 21 30 36 31 46 36 17 28 29 29 40 45 48 46 40 30 29 31 30 23 34 35 34 37 38
45 33 25 21 22 23 22 22 22 20 19 19 19 19 23 30 29 32 22 30 26 19 29 27 31 37 34 41 32 23 17 23 29 27 43 49 49 30 20 20 8 31 37 40 42 39 37
48 44 33 26 22 22 22 20 20 21 19 19 21 22 21 31 31 27 29 30 17 14 27 27 32 32 28 27 25 21 21 21 22 26 28 41 44 22 16 19 10 21 26 31 35 38 39
48 48 41 33 26 22 21 22 20 20 23 21 20 18 20 29 29 25 30 26 17 1 16 24 29 32 26 31 27 14 13 19 20 25 33 37 40 37 20 16 11 28 31 25 25 27 30
49 49 48 38 32 25 20 21 21 20 22 20 19 17 20 26 23 22 26 26 19 5 11 27 34 37 32 26 26 13 18 23 19 34 23 34 36 32 29 14 16 19 20 24 22 24 26
50 48 49 43 36 30 22 20 21 19 21 20 15 16 19 23 16 22 23 18 16 11 0 24 34 36 40 26 24 12 12 21 18 28 32 34 26 22 23 18 18 18 24 28 24 22 14
49 49 48 45 39 35 25 18 20 18 20 20 16 13 17 17 17 19 18 16 19 15 11 18 21 30 27 31 25 25 19 29 26 21 28 23 29 33 29 31 15 23 25 26 24 24 25
Wind_Direction
328 323 314 306 298 289 281 280 276 273 280 273 265 259 251 248 229 225 224 224 220 217 217 221 217 216 216 210 208 208 205 205 202 202 204 204 205 203 204 207 209 211 213 214 213 208 206
333 328 321 312 298 288 280 278 274 272 274 277 265 274 266 268 252 228 225 222 223 220 216 217 219 215 219 215 204 212 202 205 203 203 203 202 204 206 206 208 209 210 212 210 209 207 206
336 335 332 323 305 289 276 278 270 269 270 268 266 266 274 268 276 226 228 215 221 227 217 217 218 221 218 208 207 207 202 200 202 200 204 203 203 202 205 206 208 208 206 207 209 209 210
339 341 339 333 326 300 288 275 269 271 259 258 257 261 273 283 270 251 219 225 208 224 220 218 219 223 222 211 206 204 206 203 199 197 197 204 204 202 204 201 203 208 204 204 210 210 213
343 345 344 341 335 315 301 286 274 272 255 263 259 260 269 277 285 253 250 217 212 218 222 216 219 222 225 212 211 201 205 208 203 197 195 198 202 202 202 200 199 202 204 207 212 209 211
347 347 345 345 342 323 310 292 276 276 251 256 261 264 273 280 292 253 235 213 214 210 218 217 217 219 221 216 213 204 200 203 202 198 197 198 201 203 204 201 197 195 199 208 211 213 215
347 348 345 341 337 327 317 298 282 284 258 248 260 267 273 282 285 267 233 210 206 229 213 216 215 214 215 214 214 209 201 199 200 202 202 202 201 206 205 207 203 209 207 210 212 215 215
350 348 348 344 338 341 323 299 296 300 268 257 269 271 275 286 296 290 316 199 190 217 224 213 215 210 210 210 214 211 204 200 200 201 203 204 213 211 210 210 211 211 214 217 217 215 213
350 350 349 350 345 346 337 329 305 303 303 268 273 279 287 294 300 305 306 230 213 208 218 210 211 206 208 213 212 215 207 205 206 204 203 206 212 211 210 209 211 210 212 213 215 210 213
355 354 352 351 351 342 340 331 332 322 313 287 286 286 289 296 298 294 294 289 229 199 223 207 204 212 206 210 216 208 211 206 206 211 207 209 209 211 211 215 213 215 214 212 215 211 208
357 357 356 354 350 350 346 337 329 315 312 304 294 294 300 299 302 300 296 294 203 195 219 210 202 207 206 207 210 207 204 205 208 208 203 204 212 209 212 217 214 216 213 217 213 207 212
354 356 356 356 353 350 348 337 328 317 308 304 294 296 304 300 303 304 298 289 252 192 215 181 192 199 200 207 205 208 208 204 207 209 211 213 210 211 215 216 215 210 207 206 201 205 238
358 359 357 357 354 350 340 336 326 319 308 297 298 294 302 307 306 305 309 316 300 254 200 197 184 193 203 201 201 204 200 196 192 186 197 204 205 201 207 213 196 197 190 135 176 192 234
343 358 358 356 355 351 345 332 324 314 306 298 297 302 313 304 308 310 308 316 304 270 259 191 190 193 197 199 198 201 202 195 197 197 193 191 201 202 204 204 198 195 194 173 182 186 208
345 338 347 357 353 348 344 340 327 313 308 305 303 307 316 308 304 298 289 232 276 272 275 195 196 188 194 190 198 196 203 205 205 194 191 193 197 197 207 204 200 192 201 208 176 153 166
357 346 344 339 344 347 341 336 331 324 319 311 312 325 318 321 310 295 255 250 267 278 269 276 200 193 188 191 194 194 197 208 207 205 198 202 195 200 199 199 205 208 202 190 202 166 218
2 356 348 344 341 335 334 337 335 325 323 321 324 323 339 334 319 250 241 255 263 268 260 258 237 191 197 189 195 197 204 209 209 206 199 207 199 194 195 199 202 195 197 207 209 218 207
356 3 356 344 339 338 337 324 336 331 327 326 327 331 336 334 316 238 250 258 264 275 287 246 259 230 195 194 195 203 206 208 208 209 201 199 201 181 199 208 207 210 214 211 201 197 212
359 2 2 354 349 344 343 338 326 332 333 337 331 331 344 346 311 312 315 275 261 261 258 256 248 213 187 197 194 204 206 206 214 209 206 200 204 140 186 219 209 213 212 209 213 221 207
355 357 1 359 355 349 346 347 334 329 330 337 333 338 342 339 324 302 316 297 281 254 247 233 250 196 192 201 205 207 212 208 205 207 209 211 209 209 205 215 211 212 215 214 216 216 220
352 350 353 357 358 354 348 347 344 333 330 338 344 329 328 317 326 329 322 293 280 269 236 221 232 222 194 194 193 207 211 210 205 206 204 203 213 219 222 227 227 229 225 220 217 230 225
354 346 347 346 355 2 355 352 350 340 335 325 334 340 325 318 324 334 336 308 320 273 243 229 218 214 191 212 203 202 211 214 210 207 208 204 216 217 222 226 228 234 232 233 237 242 237
5 353 343 342 347 351 355 360 353 345 342 335 333 330 323 321 326 329 320 302 305 295 248 218 214 216 209 198 203 226 224 224 215 213 208 203 208 207 220 222 225 231 225 229 234 231 235
11 4 350 335 337 333 337 346 351 345 339 335 327 316 315 315 320 322 319 314 310 265 240 215 213 214 212 208 221 237 227 222 217 217 214 204 209 208 212 189 206 237 235 236 241 246 245
9 7 2 350 329 334 338 329 338 344 328 319 316 319 314 314 325 329 329 330 311 251 214 212 203 200 214 210 201 202 198 213 217 212 218 217 207 205 200 196 225 227 232 230 229 241 244
6 6 4 359 349 330 331 338 329 334 337 325 317 313 308 314 326 328 329 345 337 293 226 208 206 201 197 192 187 181 184 203 208 208 206 210 214 207 192 209 221 244 244 242 233 238 237
3 3 4 0 356 345 328 335 335 334 338 330 327 317 316 317 332 334 332 342 348 348 196 205 200 195 197 181 181 180 190 191 188 199 201 202 207 207 219 225 236 238 227 218 190 242 239
0 1 2 0 357 352 337 328 338 337 340 336 335 317 318 319 332 336 333 342 354 348 165 178 191 193 194 192 195 194 197 194 197 199 199 193 189 206 217 217 240 231 224 199 218 218 213
357 359 0 359 356 354 345 328 335 337 339 338 333 327 320 318 321 328 336 342 353 349 348 180 188 187 196 200 208 209 205 202 200 187 197 196 201 203 209 223 222 219 212 209 221 234 243
Height
3045 3041 3037 3033 3031 3028 3027 3028 3027 3027 3026 3028 3029 3030 3030 3031 3034 3039 3045 3049 3055 3060 3066 3073 3077 3081 3084 3086 3094 3097 3100 3104 3107 3112 3117 3120 3124 3127 3130 3133 3136 3139 3141 3144 3146 3148 3150
3040 3035 3030 3026 3023 3020 3020 3020 3021 3021 3022 3022 3023 3024 3024 3024 3026 3030 3035 3042 3046 3051 3057 3062 3069 3072 3077 3080 3088 3093 3095 3100 3104 3108 3112 3116 3121 3125 3126 3130 3133 3135 3138 3141 3143 3145 3147
3036 3030 3025 3020 3015 3013 3013 3014 3015 3016 3017 3018 3018 3019 3020 3019 3018 3020 3026 3034 3040 3045 3050 3055 3060 3066 3068 3076 3079 3086 3090 3094 3099 3104 3109 3114 3117 3120 3123 3127 3129 3132 3136 3137 3139 3141 3143
3033 3027 3020 3015 3010 3009 3009 3009 3010 3012 3012 3013 3014 3015 3015 3014 3013 3014 3016 3025 3033 3039 3042 3048 3053 3058 3058 3070 3071 3077 3086 3090 3093 3097 3102 3109 3113 3116 3119 3122 3125 3129 3132 3134 3135 3137 3140
3030 3025 3019 3014 3009 3007 3006 3006 3007 3007 3008 3009 3010 3010 3010 3009 3008 3008 3008 3016 3027 3032 3037 3041 3047 3050 3056 3060 3066 3070 3078 3086 3090 3093 3097 3103 3107 3110 3115 3118 3122 3123 3126 3129 3132 3134 3136
3029 3024 3018 3014 3009 3007 3005 3004 3004 3004 3003 3005 3006 3006 3006 3005 3003 3003 3004 3007 3021 3022 3028 3034 3038 3045 3044 3051 3062 3066 3071 3078 3084 3088 3093 3096 3100 3104 3107 3110 3109 3116 3121 3125 3128 3130 3132
3028 3022 3017 3013 3009 3006 3004 3002 3001 3001 3000 3000 3002 3003 3001 3001 2999 2996 2998 3004 3016 3014 3013 3020 3023 3029 3040 3046 3056 3061 3067 3071 3077 3082 3083 3088 3091 3087 3097 3106 3112 3116 3120 3122 3123 3126 3129
3027 3021 3016 3011 3007 3004 3002 3001 2999 2999 2997 2997 2998 2998 2998 2997 2996 2993 2994 2996 2998 3004 3005 3012 3021 3027 3036 3041 3050 3056 3062 3065 3068 3073 3077 3083 3081 3092 3099 3104 3109 3112 3116 3118 3120 3122 3125
3025 3020 3015 3011 3006 3003 3001 2999 2998 2997 2995 2995 2995 2995 2994 2994 2992 2991 2990 2991 2992 2996 3001 3003 3012 3020 3029 3039 3044 3050 3056 3059 3064 3068 3070 3074 3080 3089 3094 3098 3103 3107 3111 3114 3118 3119 3122
3025 3020 3015 3010 3006 3002 3000 2997 2996 2995 2993 2993 2993 2991 2991 2990 2992 2988 2988 2988 2989 2991 2997 2997 3000 3011 3021 3030 3037 3043 3050 3057 3057 3063 3071 3075 3077 3083 3089 3093 3100 3104 3109 3112 3116 3118 3120
3025 3019 3014 3009 3005 3002 2999 2996 2994 2993 2991 2990 2989 2988 2988 2988 2986 2986 2988 2983 2982 2989 2991 2991 2993 3005 3015 3022 3028 3035 3043 3048 3052 3055 3065 3064 3069 3076 3081 3088 3096 3101 3106 3110 3114 3115 3116
3024 3019 3014 3009 3005 3001 2997 2995 2993 2991 2989 2988 2987 2985 2984 2983 2982 2982 2982 2983 2980 2987 2977 2982 2985 2991 3005 3013 3021 3030 3036 3043 3049 3055 3060 3063 3066 3073 3079 3085 3091 3096 3102 3108 3112 3114 3115
3024 3019 3014 3009 3005 3001 2997 2994 2991 2989 2987 2985 2984 2982 2981 2978 2977 2977 2977 2978 2981 2975 2973 2977 2977 2983 2995 3001 3012 3019 3022 3028 3034 3045 3051 3057 3060 3065 3072 3078 3084 3090 3097 3106 3113 3113 3106
3023 3019 3014 3009 3004 3000 2996 2993 2989 2987 2984 2982 2981 2979 2979 2975 2973 2972 2975 2978 2980 2971 2972 2971 2974 2979 2984 2996 3007 3013 3019 3023 3031 3039 3047 3050 3058 3058 3061 3066 3071 3082 3087 3088 3094 3099 3099
3021 3017 3013 3008 3004 2999 2994 2991 2988 2984 2982 2979 2978 2977 2975 2972 2971 2969 2970 2972 2969 2971 2964 2968 2972 2975 2982 2985 2997 3006 3010 3015 3022 3030 3038 3043 3048 3053 3060 3063 3072 3074 3077 3084 3086 3092 3095
3020 3016 3011 3007 3002 2998 2993 2989 2985 2982 2979 2977 2974 2973 2971 2969 2966 2967 2967 2964 2964 2963 2963 2963 2964 2967 2971 2977 2986 2994 3001 3008 3016 3024 3033 3038 3046 3050 3055 3060 3065 3065 3074 3079 3080 3086 3087
3020 3015 3010 3005 3000 2995 2991 2987 2983 2980 2977 2974 2972 2970 2968 2966 2963 2963 2960 2955 2956 2957 2958 2960 2956 2961 2966 2969 2979 2983 2989 3001 3010 3019 3029 3034 3038 3046 3050 3048 3050 3059 3062 3067 3072 3073 3071
3019 3014 3009 3004 2999 2993 2989 2984 2981 2977 2974 2972 2970 2967 2965 2962 2959 2956 2956 2954 2956 2954 2954 2954 2953 2953 2959 2965 2974 2980 2984 2992 3001 3012 3018 3028 3032 3035 3038 3043 3047 3052 3053 3056 3059 3065 3068
3019 3013 3008 3002 2997 2992 2986 2982 2979 2975 2971 2968 2965 2964 2962 2959 2958 2956 2952 2950 2951 2950 2952 2951 2952 2949 2956 2961 2971 2976 2982 2990 2998 3003 3009 3017 3023 3029 3039 3043 3039 3039 3042 3049 3054 3058 3058
3017 3013 3008 3002 2996 2990 2984 2980 2976 2974 2970 2968 2964 2960 2957 2955 2955 2953 2947 2942 2942 2942 2945 2946 2948 2947 2952 2958 2963 2970 2977 2984 2990 2996 3005 3010 3013 3016 3018 3020 3028 3033 3037 3042 3048 3053 3047
3015 3010 3006 3001 2994 2988 2983 2978 2974 2971 2968 2967 2962 2961 2956 2953 2947 2942 2942 2941 2941 2941 2939 2941 2941 2942 2949 2956 2960 2965 2971 2977 2984 2989 2995 3001 3004 3011 3015 3019 3023 3025 3028 3033 3039 3038 3045
3011 3007 3003 2998 2992 2988 2982 2977 2973 2969 2967 2965 2962 2959 2954 2948 2946 2941 2937 2935 2933 2932 2932 2933 2936 2941 2945 2951 2952 2956 2963 2970 2974 2984 2988 2995 2998 3005 3008 3011 3016 3019 3022 3027 3028 3032 3036
3011 3004 3000 2996 2991 2986 2981 2977 2972 2968 2964 2960 2957 2955 2951 2946 2940 2937 2934 2931 2928 2926 2921 2924 2930 2938 2941 2944 2953 2959 2963 2967 2970 2974 2980 2988 2993 2999 3002 3006 3010 3013 3013 3016 3020 3023 3026
3011 3003 2996 2992 2988 2984 2980 2976 2971 2967 2964 2961 2957 2953 2948 2940 2937 2933 2927 2922 2916 2914 2913 2918 2924 2930 2935 2944 2950 2954 2958 2962 2968 2972 2976 2979 2987 2993 2995 3000 3005 3000 3005 3008 3012 3015 3019
3011 3003 2995 2989 2985 2980 2977 2973 2969 2965 2962 2958 2953 2949 2944 2935 2932 2926 2921 2914 2908 2906 2908 2911 2918 2925 2933 2941 2945 2950 2955 2960 2964 2968 2973 2978 2982 2987 2990 2992 2992 2994 2996 2999 3001 3005 3011
3010 3002 2994 2987 2981 2977 2973 2969 2965 2962 2957 2954 2950 2946 2942 2935 2928 2923 2916 2910 2903 2900 2903 2906 2914 2921 2927 2933 2939 2940 2946 2952 2959 2964 2966 2971 2977 2982 2983 2986 2986 2985 2990 2994 2997 2998 3002
3010 3002 2993 2985 2979 2973 2969 2966 2961 2958 2953 2950 2945 2940 2937 2931 2926 2922 2916 2909 2904 2902 2902 2906 2910 2917 2922 2925 2931 2936 2941 2945 2949 2954 2960 2963 2969 2972 2975 2977 2978 2976 2982 2987 2992 2992 2995
3010 3002 2992 2984 2977 2970 2965 2961 2958 2954 2950 2946 2943 2938 2934 2928 2925 2921 2916 2911 2907 2904 2902 2903 2910 2912 2918 2921 2927 2931 2934 2939 2943 2947 2949 2953 2962 2967 2972 2975 2974 2973 2978 2982 2983 2985 2991
3010 3001 2992 2983 2976 2968 2962 2957 2955 2951 2947 2943 2940 2937 2932 2927 2924 2921 2917 2912 2908 2904 2902 2901 2903 2907 2913 2919 2924 2929 2931 2933 2936 2941 2944 2951 2952 2958 2965 2963 2964 2967 2972 2976 2979 2983 2988